Weather History for Thedford, NE

Change the Weather History Date:

Sunday, October 21, 2012

  Actual Average (KLBF) Record (KLBF)
Temperature  
Mean Temperature 54 °F 47 °F  
Max Temperature 67 °F 63 °F 90 °F (1921)
Min Temperature 42 °F 32 °F 16 °F (1987)
Degree Days  
Heating Degree Days 10 18  
Month to date heating degree days 297  
Since 1 July heating degree days 468  
Cooling Degree Days 0 0  
Month to date cooling degree days 0  
Year to date cooling degree days 765  
Growing Degree Days 4 (Base 50)    
Moisture  
Dew Point 34 °F    
Average Humidity 47    
Maximum Humidity 82    
Minimum Humidity 27    
Precipitation  
Precipitation 0.00 in 0.06 in 1.05 in (2008)
Month to date precipitation 1.13  
Year to date precipitation 18.76  
Snow  
Snow 0.00 in 0.00 in 2.90 in (1979)
Month to date snowfall 1.1  
Since 1 July snowfall 1.3  
Since 1 September snowfall 1.3  
Snow Depth -    
Sea Level Pressure  
Sea Level Pressure 29.79 in    
Wind  
Wind Speed 8 mph (North)    
Max Wind Speed 20 mph    
Max Gust Speed 26 mph    
Visibility 10 miles    
Events      
T = Trace of Precipitation, MM = Missing Value Source: NWS Daily Summary

Daily Weather History Graph

Daily Weather History Graph

Search for Another Location

Airport:

Trip Planner

Search our weather history database for the weather conditions in past years. The results will help you decide how hot, cold, wet, or windy it might be!

Date:

Astronomy

Oct. 21, 2012 Rise Set
Actual Time 8:02 AM CDT 6:50 PM CDT
Civil Twilight 7:33 AM CDT 7:19 PM CDT
Nautical Twilight 7:01 AM CDT 7:51 PM CDT
Astronomical Twilight 6:29 AM CDT 8:23 PM CDT
Moon 2:26 PM CDT (10/21) No Moon Set
Length of Visible Light 11h 45m
Length of Day
10h 48m
Waxing Crescent, 45% of the Moon is Illuminated
Oct 21
Waxing Crescent
Oct 21
First Quarter
Oct 29
Full
Nov 6
Last Quarter
Nov 13
New

Hourly Weather History & Observations

Time (CDT) Temp. Windchill Dew Point Humidity Pressure Visibility Wind Dir Wind Speed Gust Speed Precip Events Conditions
12:15 AM 52.2 °F - 23.0 °F 32% 29.63 in 10.0 mi SSW 4.6 mph - N/A   Clear
12:35 AM 50.9 °F - 23.4 °F 34% 29.63 in 10.0 mi Calm Calm - N/A   Clear
12:55 AM 49.3 °F - 22.8 °F 35% 29.64 in 10.0 mi Calm Calm - N/A   Clear
1:15 AM 50.9 °F - 22.1 °F 32% 29.64 in 10.0 mi SSW 3.5 mph - N/A   Clear
1:35 AM 49.8 °F - 22.6 °F 34% 29.64 in 10.0 mi SSW 4.6 mph - N/A   Clear
1:55 AM 50.7 °F - 22.6 °F 33% 29.64 in 10.0 mi SSW 4.6 mph - N/A   Clear
2:15 AM 50.7 °F - 22.6 °F 33% 29.63 in 10.0 mi SSW 6.9 mph - N/A   Clear
2:35 AM 50.9 °F - 22.6 °F 33% 29.63 in 10.0 mi SSW 8.1 mph - N/A   Clear
2:55 AM 50.5 °F - 22.6 °F 34% 29.63 in 10.0 mi SSW 8.1 mph - N/A   Clear
3:15 AM 50.9 °F - 22.6 °F 33% 29.64 in 10.0 mi SSW 5.8 mph - N/A   Clear
3:35 AM 50.2 °F - 22.5 °F 34% 29.65 in 10.0 mi SSW 6.9 mph - N/A   Clear
3:55 AM 50.9 °F - 22.5 °F 33% 29.64 in 10.0 mi South 10.4 mph - N/A   Clear
4:15 AM 51.8 °F - 22.5 °F 32% 29.64 in 10.0 mi SSW 10.4 mph - N/A   Clear
4:35 AM 51.8 °F - 22.3 °F 32% 29.64 in 10.0 mi SSW 8.1 mph - N/A   Clear
4:55 AM 52.2 °F - 23.2 °F 32% 29.68 in 10.0 mi WNW 12.7 mph 20.7 mph N/A   Clear
5:15 AM 56.7 °F - 23.0 °F 27% 29.68 in 10.0 mi West 5.8 mph - N/A   Clear
5:35 AM 52.5 °F - 22.3 °F 31% 29.69 in 10.0 mi WNW 4.6 mph - N/A   Clear
5:55 AM 50.0 °F - 22.1 °F 33% 29.70 in 10.0 mi WNW 4.6 mph - N/A   Clear
6:15 AM 50.0 °F - 23.0 °F 35% 29.71 in 10.0 mi WNW 4.6 mph - N/A   Clear
6:35 AM 47.8 °F - 24.4 °F 40% 29.71 in 10.0 mi NW 5.8 mph - N/A   Clear
6:55 AM 46.6 °F - 25.9 °F 44% 29.72 in 10.0 mi West 6.9 mph - N/A   Clear
7:15 AM 47.7 °F - 29.3 °F 49% 29.73 in 10.0 mi WNW 5.8 mph - N/A   Clear
7:35 AM 46.4 °F 44.3 °F 31.1 °F 55% 29.75 in 10.0 mi NW 4.6 mph - N/A   Clear
7:55 AM 44.6 °F 42.2 °F 31.5 °F 60% 29.76 in 10.0 mi NW 4.6 mph - N/A   Clear
8:15 AM 42.6 °F - 31.1 °F 64% 29.77 in 10.0 mi Calm Calm - N/A   Clear
8:35 AM 43.5 °F 40.1 °F 32.2 °F 64% 29.78 in 10.0 mi NW 5.8 mph - N/A   Clear
8:55 AM 45.7 °F 39.8 °F 34.3 °F 65% 29.78 in 10.0 mi NW 12.7 mph - N/A   Clear
9:15 AM 48.9 °F - 36.3 °F 62% 29.79 in 10.0 mi NNW 16.1 mph 24.2 mph N/A   Clear
9:35 AM 50.5 °F - 37.8 °F 62% 29.80 in 10.0 mi NNW 16.1 mph 24.2 mph N/A   Clear
9:55 AM 51.8 °F - 38.7 °F 61% 29.82 in 10.0 mi NNW 16.1 mph 26.5 mph N/A   Clear
10:15 AM 53.1 °F - 39.2 °F 59% 29.82 in 10.0 mi North 13.8 mph 26.5 mph N/A   Clear
10:35 AM 54.7 °F - 39.6 °F 57% 29.83 in 10.0 mi North 15.0 mph 24.2 mph N/A   Clear
10:55 AM 55.4 °F - 39.9 °F 56% 29.84 in 10.0 mi North 11.5 mph 21.9 mph N/A   Clear
11:15 AM 56.5 °F - 40.1 °F 54% 29.83 in 10.0 mi North 16.1 mph 24.2 mph N/A   Clear
11:35 AM 57.0 °F - 40.3 °F 54% 29.82 in 10.0 mi North 18.4 mph 23.0 mph N/A   Clear
11:55 AM 58.8 °F - 40.3 °F 50% 29.83 in 10.0 mi North 15.0 mph 19.6 mph N/A   Clear
12:15 PM 59.2 °F - 40.1 °F 49% 29.83 in 10.0 mi North 16.1 mph 20.7 mph N/A   Clear
12:35 PM 60.8 °F - 40.5 °F 47% 29.82 in 10.0 mi North 17.3 mph 20.7 mph N/A   Clear
12:55 PM 61.7 °F - 40.3 °F 45% 29.83 in 10.0 mi North 13.8 mph 23.0 mph N/A   Clear
1:15 PM 63.5 °F - 40.3 °F 43% 29.82 in 10.0 mi North 15.0 mph 19.6 mph N/A   Clear
1:35 PM 63.7 °F - 40.1 °F 42% 29.82 in 10.0 mi North 15.0 mph 23.0 mph N/A   Clear
1:55 PM 64.4 °F - 39.9 °F 41% 29.82 in 10.0 mi North 17.3 mph 23.0 mph N/A   Clear
2:15 PM 65.3 °F - 39.9 °F 39% 29.81 in 10.0 mi NNE 17.3 mph 21.9 mph N/A   Clear
2:35 PM 65.3 °F - 40.5 °F 40% 29.82 in 10.0 mi North 15.0 mph 21.9 mph N/A   Clear
2:55 PM 65.7 °F - 40.3 °F 39% 29.81 in 10.0 mi NNE 18.4 mph 23.0 mph N/A   Clear
3:15 PM 66.6 °F - 39.2 °F 37% 29.81 in 10.0 mi NNE 16.1 mph 24.2 mph N/A   Clear
3:35 PM 66.9 °F - 38.7 °F 35% 29.81 in 10.0 mi NNE 19.6 mph 24.2 mph N/A   Clear
3:55 PM 67.3 °F - 38.1 °F 34% 29.81 in 10.0 mi NNE 16.1 mph 23.0 mph N/A   Clear
4:15 PM 67.8 °F - 37.6 °F 33% 29.81 in 10.0 mi NNE 15.0 mph 20.7 mph N/A   Clear
4:35 PM 67.3 °F - 37.6 °F 34% 29.81 in 10.0 mi NNE 16.1 mph 25.3 mph N/A   Clear
4:55 PM 67.1 °F - 36.9 °F 33% 29.81 in 10.0 mi NNE 17.3 mph 25.3 mph N/A   Clear
5:15 PM 66.6 °F - 37.2 °F 34% 29.82 in 10.0 mi NE 12.7 mph 20.7 mph N/A   Clear
5:35 PM 65.5 °F - 37.0 °F 35% 29.82 in 10.0 mi NNE 17.3 mph 24.2 mph N/A   Clear
5:55 PM 64.8 °F - 36.5 °F 35% 29.83 in 10.0 mi NE 16.1 mph 21.9 mph N/A   Clear
6:15 PM 63.7 °F - 37.4 °F 38% 29.84 in 10.0 mi NNE 17.3 mph 20.7 mph N/A   Clear
6:35 PM 61.9 °F - 37.8 °F 41% 29.85 in 10.0 mi NNE 12.7 mph - N/A   Clear
6:55 PM 60.3 °F - 38.3 °F 44% 29.85 in 10.0 mi NNE 11.5 mph - N/A   Clear
7:15 PM 58.3 °F - 38.7 °F 48% 29.87 in 10.0 mi NNE 9.2 mph - N/A   Clear
7:35 PM 56.1 °F - 38.8 °F 52% 29.87 in 10.0 mi NNE 8.1 mph - N/A   Clear
7:55 PM 54.9 °F - 38.8 °F 55% 29.89 in 10.0 mi NNE 6.9 mph - N/A   Clear
8:15 PM 52.7 °F - 38.7 °F 59% 29.89 in 10.0 mi NE 5.8 mph - N/A   Clear
8:35 PM 51.8 °F - 38.7 °F 61% 29.89 in 10.0 mi NNE 6.9 mph - N/A   Clear
8:55 PM 50.5 °F - 38.7 °F 64% 29.90 in 10.0 mi NNE 4.6 mph - N/A   Clear
9:15 PM 49.8 °F - 38.8 °F 66% 29.91 in 10.0 mi NNE 5.8 mph - N/A   Clear
9:35 PM 49.3 °F - 39.6 °F 69% 29.91 in 10.0 mi NE 6.9 mph - N/A   Clear
9:55 PM 50.2 °F - 41.0 °F 71% 29.91 in 10.0 mi NE 10.4 mph - N/A   Clear
10:15 PM 49.8 °F - 41.2 °F 72% 29.91 in 10.0 mi NE 9.2 mph - N/A   Clear
10:35 PM 48.7 °F - 41.0 °F 75% 29.92 in 10.0 mi ENE 8.1 mph - N/A   Clear
10:55 PM 47.5 °F - 40.5 °F 77% 29.92 in 10.0 mi NE 5.8 mph - N/A   Scattered Clouds
11:15 PM 48.6 °F - 42.1 °F 78% 29.92 in 10.0 mi NE 11.5 mph - N/A   Overcast
11:35 PM 48.6 °F - 42.8 °F 80% 29.92 in 10.0 mi NE 12.7 mph - N/A   Overcast
11:55 PM 48.4 °F - 43.2 °F 82% 29.92 in 10.0 mi NE 13.8 mph 20.7 mph N/A   Overcast